User: anonymous
Location: Unspecified
(0.0000°N, 0.0000°E)
Time: 18:21:41
(UTC+00:00)
Language:

Altair - Orbit

View from above orbital plane
View from above orbital plane
View from above satellite
View from above satellite

Ground track
Ground track

The orbit data is extracted from the following two-line orbital elements,

1 00050U 60009B   14292.37278158 -.00000050  00000-0  32986-3 0  1268
2 00050 047.2330 059.7905 0113710 282.1203 076.6866 12.20084618418174
Epoch (UTC): 19 October 2014 08:56:48
Eccentricity: 0.0113710
inclination: 47.2330°
perigee height: 1501 km
apogee height: 1683 km
right ascension of ascending node: 59.7905°
argument of perigee: 282.1203°
revolutions per day: 12.20084618
mean anomaly at epoch: 76.6866°
orbit number at epoch: 41817

The dashed part of the orbit path shows where the satellite is in the earth's shadow,  

DLR